Regional Weather Roundup
Issued by NWS Green Bay, WI

Home | Current Version | Previous Version | Graphics & Text | Print | Product List | Glossary Off
Versions: 1 2 3 4 5 6 7 8 9 10 11 12 13 14 15 16 17 18 19 20 21 22 23 24 25 26 27 28 29 30 31 32 33 34 35 36 37 38 39 40 41 42 43 44 45 46 47 48 49 50

000
ASUS43 KGRB 060310
RWRGRB

NORTH-CENTRAL AND NORTHEAST WISCONSIN REGIONAL WEATHER ROUNDUP
NATIONAL WEATHER SERVICE GREEN BAY WI
900 PM CST THU MAR 05 2015

WIZ005-009-010>012-018-019-060400-
NORTH CENTRAL WISCONSIN

CITY           SKY/WX    TMP DP  RH WIND       PRES   REMARKS
IRONWOOD       CLEAR      7  -9  47 SW14      30.25S WCI -10
MANITOWISH WTR CLEAR      3 -13  48 SW6       30.26F WCI  -8
ARBOR VITAE    CLEAR      5 -11  48 SW6       30.28R WCI  -6
EAGLE RIVER    CLEAR      2 -14  46 SW9       30.27R WCI -12
LAND O LAKES   CLEAR      6 -13  41 SW6       30.25F WCI  -5
RHINELANDER    CLEAR      2 -11  54 SW7       30.29F WCI -11
PHILLIPS       PTCLDY     1 -10  58 SW6       30.30S WCI -10
ANTIGO         PTCLDY    -1 -10  65 W5        30.32S WCI -11
TOMAHAWK       PTCLDY     2 -11  54 CALM      30.32F
MERRILL        PTCLDY     0 -10  61 CALM      30.34S
$$

WIZ013-073-060400-
NORTHEAST WISCONSIN

CITY           SKY/WX    TMP DP  RH WIND       PRES   REMARKS
IRON MOUNTAIN  CLEAR      7  -9  48 SW7       30.29S WCI  -5
MARINETTE      CLEAR      9  -8  47 W7        30.39R WCI  -3
OCONTO         PTCLDY     6  -8  53 W6        30.42S WCI  -5
$$

WIZ017-030-035>037-045-060400-
CENTRAL WISCONSIN

CITY           SKY/WX    TMP DP  RH WIND       PRES   REMARKS
MEDFORD        PTCLDY     1 -10  58 SW6       30.33S WCI -10
WAUSAU         PTCLDY     3 -10  54 SW5       30.36S WCI  -6
MOSINEE        CLEAR      1  -9  60 SW5       30.38S WCI  -8
MARSHFIELD     PTCLDY     3 -10  54 SW6       30.37S WCI  -8
WISC RAPIDS    PTCLDY     6  -8  52 SW6       30.42S WCI  -4
STEVENS POINT  PTCLDY    -2 -10  69 CALM      30.40S
WAUPACA          N/A      8  -7  52 SW6       30.43S WCI  -2
SHAWANO        PTCLDY     8  -7  52 CALM      30.42S
CLINTONVILLE   PTCLDY     5  -8  56 SW5       30.41S WCI  -4
$$

WIZ038-039-048-051-060400-
FOX VALLEY

CITY           SKY/WX    TMP DP  RH WIND       PRES   REMARKS
NWS GREEN BAY  PTCLDY     7  -7  52 W5        30.43S WCI  -2
APPLETON       CLEAR      9  -8  47 SW9       30.42S WCI  -5
OSHKOSH        PTCLDY     8  -5  55 SW5       30.43S WCI   0
FOND DU LAC    PTCLDY     7  -5  57 SW5       30.44F WCI  -2
$$

WIZ022-050-052-060400-
EAST CENTRAL WISCONSIN

CITY           SKY/WX    TMP DP  RH WIND       PRES   REMARKS
STURGEON BAY   PTCLDY     9  -8  47 SW8       30.42S WCI  -4
MANITOWOC      MOCLDY     6  -3  66 SW5       30.45S WCI  -3
SHEBOYGAN      PTCLDY     5  -5  63 SW8       30.45S WCI  -8
$$

LMZ563-521-522-541>543-060400-
LAKESHORE

STATION/POSITION TIME  TEMP    WIND        PRES    VSBY  WAVE
                       AIR SEA DIR/SP/G                  HT/PER
                 (UTC) (F)     (DEG/KT/KT) (MB)    (MI)  (FT/S)
SHEBOYGAN LKSHOR 0300   12     220/ 11/ 12 1033.4S
KEWAUNEE LKSHORE 0300    9     220/  5/  7 1029.5S
NORTHPORT PIER   0300    9     200/  3/ 11 1029.1S
SISTER BAY LKSHO 0200   10     210/ 13/ 17   N/A
CHAMBERS ISLAND  0300    8     200/  8/ 14 1029.1S
MENOMINEE LKSHOR 0300   10     220/ 10     1030.1R
$$


USA.gov is the U.S. government's official web portal to all federal, state and local government web resources and services.